WZZ873 LFMN-EPGD

Flight info

Callsign WZZ873
Flight time N/A
Altitude 34000
Route BASIP DCT ANAKI DCT IDREK DCT LEDKO DCT MOBDO/N0440F350 DCT VERDA DCT NEMAL DCT MEDEL DCT APRAQ DCT EVIKU DCT TOMTI P733 AKAPI DCT ATMIR P733 IRLUN
Aircraft A321/M-SDE1E2E3FGIJ1J4RWXY/LB1

Departure

Time N/A
Airport Nice-Côte d'Azur Airport (LFMN)

Arrival

Time 2026-05-04 21:11
Airport Gdańsk Lech Wałęsa Airport (EPGD)
Time Latitude Longitude Altitude Speed Heading
2026-05-04 19:43 46.54707 11.97504 34124 ft 480 kts 42°
2026-05-04 19:43 46.57152 12.00839 34130 ft 480 kts 43°
2026-05-04 19:44 46.62032 12.07467 34145 ft 479 kts 42°
2026-05-04 19:44 46.66918 12.14004 34164 ft 478 kts 42°
2026-05-04 19:45 46.71799 12.20552 34163 ft 478 kts 42°
2026-05-04 19:45 46.76675 12.27147 34167 ft 478 kts 42°
2026-05-04 19:46 46.81547 12.33782 34153 ft 478 kts 43°
2026-05-04 19:46 46.85589 12.39303 34142 ft 477 kts 43°
2026-05-04 19:47 46.91233 12.47011 34110 ft 477 kts 43°
2026-05-04 19:47 46.95281 12.52548 34091 ft 477 kts 43°
2026-05-04 19:48 47.00106 12.59151 34067 ft 476 kts 43°
2026-05-04 19:48 47.05742 12.66890 34055 ft 476 kts 43°
2026-05-04 19:49 47.09760 12.72425 34051 ft 476 kts 43°
2026-05-04 19:49 47.14596 12.79115 34045 ft 476 kts 43°
2026-05-04 19:50 47.19400 12.85769 34037 ft 476 kts 43°
2026-05-04 19:50 47.24229 12.92483 34017 ft 477 kts 43°
2026-05-04 19:51 47.29031 12.99187 34013 ft 477 kts 43°
2026-05-04 19:51 47.33859 13.05929 33999 ft 478 kts 43°
2026-05-04 19:52 47.38589 13.12538 33990 ft 478 kts 43°
2026-05-04 19:52 47.43401 13.19285 33987 ft 478 kts 43°
2026-05-04 19:53 47.48227 13.26104 33978 ft 479 kts 43°
2026-05-04 19:53 47.53353 13.32279 33966 ft 477 kts 29°
2026-05-04 19:54 47.59436 13.35937 33960 ft 474 kts 14°
2026-05-04 19:54 47.65795 13.38623 33955 ft 474 kts 14°
2026-05-04 19:55 47.72144 13.41346 33945 ft 474 kts 14°
2026-05-04 19:55 47.78453 13.44081 33943 ft 474 kts 15°
2026-05-04 19:56 47.84791 13.46825 33940 ft 474 kts 15°
2026-05-04 19:56 47.91134 13.49549 33927 ft 474 kts 15°
2026-05-04 19:57 47.97317 13.53000 33924 ft 475 kts 20°
2026-05-04 19:57 48.03420 13.56667 33921 ft 475 kts 21°
2026-05-04 19:58 48.09547 13.60355 33914 ft 475 kts 20°
2026-05-04 19:58 48.15692 13.64039 33916 ft 475 kts 20°
2026-05-04 19:59 48.21864 13.67371 33912 ft 473 kts 11°
2026-05-04 19:59 48.28325 13.69289 33919 ft 472 kts
2026-05-04 20:00 48.34743 13.71267 33917 ft 473 kts 10°
2026-05-04 20:00 48.41188 13.73287 33920 ft 473 kts 10°
2026-05-04 20:01 48.47647 13.75289 33930 ft 473 kts
2026-05-04 20:01 48.54115 13.77271 33928 ft 473 kts
2026-05-04 20:02 48.60539 13.79241 33929 ft 473 kts 10°
2026-05-04 20:02 48.67000 13.81249 33936 ft 474 kts 10°
2026-05-04 20:03 48.73461 13.83261 33952 ft 474 kts 10°
2026-05-04 20:03 48.79942 13.85277 33951 ft 474 kts 10°
2026-05-04 20:04 48.86232 13.88250 33950 ft 476 kts 22°
2026-05-04 20:04 48.92310 13.92167 33952 ft 477 kts 21°
2026-05-04 20:05 48.98441 13.96103 33949 ft 477 kts 21°
2026-05-04 20:05 49.04523 14.00029 33956 ft 477 kts 22°
2026-05-04 20:06 49.10650 14.04028 33954 ft 477 kts 21°
2026-05-04 20:06 49.16769 14.08029 33950 ft 478 kts 21°
2026-05-04 20:07 49.22840 14.11981 33948 ft 478 kts 21°
2026-05-04 20:07 49.28925 14.15965 33963 ft 478 kts 21°
2026-05-04 20:08 49.35043 14.19989 33953 ft 477 kts 21°
2026-05-04 20:08 49.41152 14.24021 33958 ft 477 kts 21°
2026-05-04 20:09 49.47221 14.28024 33961 ft 477 kts 21°
2026-05-04 20:09 49.53306 14.32047 33961 ft 477 kts 21°
2026-05-04 20:10 49.59419 14.36098 33968 ft 476 kts 21°
2026-05-04 20:10 49.65471 14.40116 33963 ft 475 kts 20°
2026-05-04 20:11 49.71604 14.44031 33968 ft 475 kts 21°
2026-05-04 20:11 49.77630 14.48150 33968 ft 475 kts 22°
2026-05-04 20:12 49.83674 14.52332 33970 ft 475 kts 21°
2026-05-04 20:12 49.89729 14.56435 33961 ft 474 kts 21°
2026-05-04 20:13 49.95755 14.60491 33967 ft 474 kts 21°
2026-05-04 20:13 50.01819 14.64581 33967 ft 474 kts 21°
2026-05-04 20:14 50.07825 14.68649 33967 ft 473 kts 21°
2026-05-04 20:14 50.13875 14.72767 33966 ft 473 kts 21°
2026-05-04 20:15 50.19919 14.76897 33965 ft 473 kts 21°
2026-05-04 20:15 50.25922 14.81008 33964 ft 473 kts 21°
2026-05-04 20:16 50.31958 14.85144 33963 ft 473 kts 21°
2026-05-04 20:16 50.37985 14.89279 33961 ft 473 kts 21°
2026-05-04 20:17 50.43978 14.93416 33970 ft 473 kts 21°
2026-05-04 20:17 50.49569 14.97285 33974 ft 473 kts 21°
2026-05-04 20:18 50.55600 15.01465 33979 ft 472 kts 21°
2026-05-04 20:18 50.61583 15.05633 33981 ft 472 kts 21°
2026-05-04 20:19 50.67596 15.09838 33987 ft 471 kts 21°
2026-05-04 20:19 50.73553 15.14010 33987 ft 471 kts 21°
2026-05-04 20:20 50.79554 15.18217 33984 ft 471 kts 21°
2026-05-04 20:20 50.85550 15.22428 33989 ft 471 kts 21°
2026-05-04 20:21 50.91536 15.26657 33988 ft 470 kts 21°
2026-05-04 20:21 50.99983 15.34488 33983 ft 474 kts 32°
2026-05-04 20:22 51.05419 15.40474 33981 ft 474 kts 32°
2026-05-04 20:22 51.10827 15.46413 33981 ft 474 kts 32°
2026-05-04 20:23 51.16257 15.52423 33975 ft 474 kts 32°
2026-05-04 20:23 51.21675 15.58452 33977 ft 474 kts 32°
2026-05-04 20:24 51.27089 15.64486 33969 ft 474 kts 32°
2026-05-04 20:24 51.32490 15.70513 33966 ft 474 kts 32°
2026-05-04 20:25 51.37873 15.76553 33968 ft 475 kts 33°
2026-05-04 20:25 51.43289 15.82640 33965 ft 475 kts 32°
2026-05-04 20:26 51.48702 15.88727 33961 ft 475 kts 33°
2026-05-04 20:26 51.54079 15.94814 33964 ft 475 kts 33°
2026-05-04 20:27 51.59493 16.00960 33966 ft 475 kts 32°
2026-05-04 20:27 51.64910 16.07124 33963 ft 475 kts 33°
2026-05-04 20:28 51.70279 16.13248 33960 ft 475 kts 32°
2026-05-04 20:28 51.75681 16.19432 33957 ft 476 kts 33°
2026-05-04 20:29 51.81082 16.25633 33956 ft 476 kts 32°
2026-05-04 20:29 51.86447 16.31807 33963 ft 476 kts 32°
2026-05-04 20:30 51.91856 16.38047 33964 ft 476 kts 32°
2026-05-04 20:30 51.97231 16.44274 33967 ft 476 kts 32°
2026-05-04 20:31 52.02639 16.50557 33971 ft 476 kts 32°
2026-05-04 20:31 52.08033 16.56839 33964 ft 477 kts 32°
2026-05-04 20:32 52.13389 16.63090 33961 ft 477 kts 32°
2026-05-04 20:32 52.18787 16.69415 33964 ft 477 kts 32°
2026-05-04 20:33 52.22359 16.73617 33959 ft 477 kts 32°
2026-05-04 20:33 52.26447 16.78445 33942 ft 461 kts 32°
2026-05-04 20:33 52.29032 16.81514 33947 ft 456 kts 32°
2026-05-04 20:34 52.34177 16.87606 33949 ft 455 kts 32°
2026-05-04 20:34 52.39283 16.93631 33949 ft 455 kts 32°
2026-05-04 20:35 52.44439 16.99740 33948 ft 456 kts 32°
2026-05-04 20:35 52.49539 17.05832 33949 ft 456 kts 32°
2026-05-04 20:36 52.54675 17.11985 33955 ft 456 kts 32°
2026-05-04 20:36 52.59822 17.18167 33507 ft 455 kts 32°
2026-05-04 20:37 52.62339 17.21198 33242 ft 453 kts 32°
2026-05-04 20:37 52.64876 17.24255 32973 ft 451 kts 32°
2026-05-04 20:37 52.67410 17.27306 32697 ft 449 kts 32°
2026-05-04 20:37 52.69927 17.30341 32438 ft 447 kts 32°
2026-05-04 20:38 52.72426 17.33367 32185 ft 445 kts 32°
2026-05-04 20:38 52.74888 17.36354 31921 ft 443 kts 32°
2026-05-04 20:38 52.77379 17.39380 31662 ft 442 kts 32°
2026-05-04 20:38 52.79854 17.42384 31407 ft 440 kts 32°
2026-05-04 20:39 52.82319 17.45380 31037 ft 439 kts 32°
2026-05-04 20:39 52.84772 17.48368 30546 ft 437 kts 32°
2026-05-04 20:39 52.87212 17.51344 30056 ft 435 kts 32°
2026-05-04 20:39 52.89611 17.54277 29541 ft 432 kts 32°
2026-05-04 20:40 52.92024 17.57234 29086 ft 428 kts 32°
2026-05-04 20:40 52.94419 17.60171 28630 ft 424 kts 32°
2026-05-04 20:40 52.96783 17.63074 28182 ft 421 kts 33°
2026-05-04 20:40 52.99107 17.65929 27750 ft 418 kts 33°
2026-05-04 20:41 53.01434 17.68790 27327 ft 415 kts 33°
2026-05-04 20:41 53.03753 17.71647 26900 ft 413 kts 33°
2026-05-04 20:41 53.06053 17.74483 26511 ft 410 kts 33°
2026-05-04 20:41 53.08315 17.77283 26386 ft 399 kts 33°
2026-05-04 20:42 53.10491 17.79986 26256 ft 389 kts 33°
2026-05-04 20:42 53.12639 17.82656 26052 ft 381 kts 33°
2026-05-04 20:42 53.14761 17.85288 25708 ft 377 kts 33°
2026-05-04 20:42 53.16861 17.87889 25343 ft 375 kts 33°
2026-05-04 20:43 53.18952 17.90481 24961 ft 372 kts 33°
2026-05-04 20:43 53.21006 17.93034 24589 ft 370 kts 33°
2026-05-04 20:43 53.23068 17.95606 24213 ft 369 kts 33°
2026-05-04 20:43 53.25123 17.98174 23843 ft 367 kts 34°
2026-05-04 20:44 53.27165 18.00724 23458 ft 365 kts 34°
2026-05-04 20:44 53.29169 18.03230 23040 ft 363 kts 34°
2026-05-04 20:44 53.31187 18.05759 22616 ft 361 kts 34°
2026-05-04 20:44 53.33191 18.08272 22202 ft 359 kts 34°
2026-05-04 20:45 53.35187 18.10778 21793 ft 357 kts 34°
2026-05-04 20:45 53.37170 18.13271 21403 ft 355 kts 34°
2026-05-04 20:45 53.39119 18.15724 21021 ft 352 kts 34°
2026-05-04 20:45 53.41071 18.18184 20653 ft 351 kts 34°
2026-05-04 20:46 53.43016 18.20639 20262 ft 349 kts 34°
2026-05-04 20:46 53.44955 18.23088 19890 ft 347 kts 34°
2026-05-04 20:46 53.46881 18.25520 19520 ft 345 kts 34°
2026-05-04 20:46 53.48797 18.27941 19161 ft 343 kts 34°
2026-05-04 20:47 53.50678 18.30323 18813 ft 342 kts 34°
2026-05-04 20:47 53.52572 18.32728 18467 ft 340 kts 34°
2026-05-04 20:47 53.54458 18.35129 18108 ft 338 kts 34°
2026-05-04 20:47 53.56336 18.37519 17722 ft 336 kts 34°
2026-05-04 20:48 53.58174 18.39858 17351 ft 335 kts 34°
2026-05-04 20:48 53.60028 18.42218 16982 ft 333 kts 34°
2026-05-04 20:48 53.61872 18.44569 16618 ft 331 kts 34°
2026-05-04 20:48 53.63707 18.46913 16254 ft 329 kts 34°
2026-05-04 20:49 53.65527 18.49239 15912 ft 327 kts 34°
2026-05-04 20:49 53.67334 18.51554 15562 ft 325 kts 34°
2026-05-04 20:49 53.69134 18.53863 15208 ft 324 kts 34°
2026-05-04 20:49 53.70903 18.56134 14879 ft 322 kts 34°
2026-05-04 20:50 53.72683 18.58423 14549 ft 320 kts 34°
2026-05-04 20:50 53.74452 18.60690 14219 ft 318 kts 32°
2026-05-04 20:50 53.76360 18.62511 13871 ft 313 kts 20°
2026-05-04 20:50 53.78385 18.64061 13163 ft 323 kts 20°
2026-05-04 20:51 53.80441 18.65637 12696 ft 324 kts 20°
2026-05-04 20:51 53.82490 18.67214 12306 ft 323 kts 21°
2026-05-04 20:51 53.84526 18.68788 11923 ft 321 kts 20°
2026-05-04 20:51 53.86529 18.70338 11566 ft 320 kts 20°
2026-05-04 20:52 53.88545 18.71899 11210 ft 318 kts 21°
2026-05-04 20:52 53.90545 18.73454 10933 ft 309 kts 20°
2026-05-04 20:52 53.92450 18.74942 10769 ft 294 kts 20°
2026-05-04 20:52 53.94346 18.75989 10475 ft 281 kts
2026-05-04 20:53 53.96279 18.76301 10302 ft 278 kts 355°
2026-05-04 20:53 53.98174 18.76367 10143 ft 274 kts 356°
2026-05-04 20:53 54.00094 18.76458 10028 ft 274 kts 356°
2026-05-04 20:53 54.02008 18.76557 9895 ft 274 kts 356°
2026-05-04 20:54 54.03914 18.76656 9740 ft 274 kts 356°
2026-05-04 20:54 54.05810 18.76750 9592 ft 273 kts 356°
2026-05-04 20:54 54.07684 18.76845 9402 ft 264 kts 356°
2026-05-04 20:54 54.09469 18.76863 9180 ft 254 kts 347°
2026-05-04 20:55 54.11127 18.76040 9053 ft 244 kts 327°
2026-05-04 20:55 54.12458 18.74350 8918 ft 236 kts 308°
2026-05-04 20:55 54.13358 18.72064 8798 ft 230 kts 290°
2026-05-04 20:55 54.13980 18.69547 8672 ft 229 kts 289°
2026-05-04 20:56 54.14597 18.67075 8541 ft 229 kts 290°
2026-05-04 20:56 54.15223 18.64581 8424 ft 229 kts 290°
2026-05-04 20:56 54.16180 18.62412 8263 ft 237 kts 321°
2026-05-04 20:56 54.17196 18.61664 8200 ft 246 kts 343°
2026-05-04 20:57 54.18926 18.61976 8082 ft 259 kts 16°
2026-05-04 20:57 54.20600 18.63195 7966 ft 261 kts 19°
2026-05-04 20:57 54.22421 18.65890 7782 ft 270 kts 59°
2026-05-04 20:57 54.22833 18.67894 7724 ft 272 kts 82°
2026-05-04 20:58 54.22650 18.71069 7658 ft 269 kts 113°
2026-05-04 20:58 54.21908 18.74000 7534 ft 268 kts 117°
2026-05-04 20:58 54.21164 18.76930 7395 ft 268 kts 116°
2026-05-04 20:58 54.20440 18.79815 7253 ft 267 kts 116°
2026-05-04 20:59 54.19709 18.82730 7120 ft 266 kts 116°
2026-05-04 20:59 54.18976 18.85641 7007 ft 266 kts 116°
2026-05-04 20:59 54.18244 18.88550 6857 ft 266 kts 116°
2026-05-04 20:59 54.17514 18.91449 6767 ft 266 kts 116°
2026-05-04 21:00 54.16783 18.94353 6631 ft 265 kts 116°
2026-05-04 21:00 54.16070 18.97180 6486 ft 258 kts 116°
2026-05-04 21:00 54.15378 18.99961 6352 ft 251 kts 112°
2026-05-04 21:00 54.15185 19.02900 6211 ft 251 kts 78°
2026-05-04 21:01 54.15910 19.05542 6082 ft 245 kts 44°
2026-05-04 21:01 54.17241 19.07123 5970 ft 222 kts 18°
2026-05-04 21:01 54.18595 19.08128 5797 ft 211 kts 17°
2026-05-04 21:01 54.20056 19.08884 5684 ft 222 kts 356°
2026-05-04 21:02 54.21523 19.08381 5561 ft 212 kts 327°
2026-05-04 21:02 54.22607 19.06791 5455 ft 203 kts 300°
2026-05-04 21:02 54.23216 19.04634 5356 ft 201 kts 290°
2026-05-04 21:02 54.23773 19.02437 5255 ft 201 kts 290°
2026-05-04 21:03 54.24323 19.00270 5128 ft 200 kts 290°
2026-05-04 21:03 54.24875 18.98092 5030 ft 199 kts 290°
2026-05-04 21:03 54.25427 18.95914 4903 ft 199 kts 290°
2026-05-04 21:03 54.25978 18.93733 4715 ft 199 kts 290°
2026-05-04 21:04 54.26526 18.91562 4553 ft 198 kts 290°
2026-05-04 21:04 54.27073 18.89394 4378 ft 198 kts 290°
2026-05-04 21:04 54.27613 18.87255 4221 ft 198 kts 291°
2026-05-04 21:04 54.28160 18.85080 4041 ft 198 kts 291°
2026-05-04 21:05 54.28697 18.82951 3905 ft 186 kts 291°
2026-05-04 21:05 54.29172 18.81067 3802 ft 156 kts 291°
2026-05-04 21:05 54.29581 18.79439 3672 ft 144 kts 290°
2026-05-04 21:05 54.29973 18.77872 3570 ft 142 kts 290°
2026-05-04 21:06 54.30364 18.76311 3462 ft 142 kts 291°
2026-05-04 21:06 54.30751 18.74768 3362 ft 141 kts 291°
2026-05-04 21:06 54.31138 18.73222 3261 ft 141 kts 291°
2026-05-04 21:06 54.31519 18.71700 3191 ft 140 kts 291°
2026-05-04 21:07 54.31904 18.70157 3098 ft 141 kts 291°
2026-05-04 21:07 54.32290 18.68614 2948 ft 141 kts 291°
2026-05-04 21:07 54.32675 18.67073 2775 ft 140 kts 291°
2026-05-04 21:07 54.33059 18.65536 2580 ft 140 kts 292°
2026-05-04 21:08 54.33435 18.64027 2409 ft 139 kts 292°
2026-05-04 21:08 54.33815 18.62503 2226 ft 139 kts 292°
2026-05-04 21:08 54.34194 18.60981 2039 ft 138 kts 292°
2026-05-04 21:08 54.34571 18.59468 1849 ft 138 kts 292°
2026-05-04 21:09 54.34945 18.57961 1672 ft 137 kts 292°
2026-05-04 21:09 54.35320 18.56454 1474 ft 137 kts 292°
2026-05-04 21:09 54.35691 18.54952 1281 ft 137 kts 292°
2026-05-04 21:09 54.36060 18.53443 1041 ft 138 kts 291°
2026-05-04 21:10 54.36426 18.51927 839 ft 139 kts 291°
2026-05-04 21:10 54.36830 18.50440 696 ft 137 kts 293°
2026-05-04 21:10 54.37187 18.48943 576 ft 134 kts 289°
2026-05-04 21:10 54.37540 18.47522 465 ft 120 kts 293°
2026-05-04 21:11 54.37783 18.46489 456 ft 53 kts 292°
2026-05-04 21:11 54.37855 18.46200 458 ft 21 kts 294°
2026-05-04 21:11 54.37934 18.45950 457 ft 22 kts 310°
2026-05-04 21:11 54.38041 18.45784 455 ft 18 kts 323°
2026-05-04 21:12 54.38062 18.45757 455 ft 0 kts 323°
2026-05-04 21:14 54.38067 18.45750 455 ft 4 kts 323°
2026-05-04 21:14 54.38096 18.45713 455 ft 6 kts 328°
2026-05-04 21:14 54.38139 18.45719 455 ft 7 kts 45°
2026-05-04 21:14 54.38138 18.45802 455 ft 8 kts 109°
2026-05-04 21:15 54.38120 18.45877 455 ft 6 kts 113°
2026-05-04 21:15 54.38106 18.45935 458 ft 5 kts 112°
2026-05-04 21:15 54.38098 18.45982 459 ft 5 kts 98°
2026-05-04 21:15 54.38118 18.46064 460 ft 9 kts 43°
2026-05-04 21:16 54.38169 18.46121 460 ft 4 kts 53°
2026-05-04 21:16 54.38174 18.46183 460 ft 6 kts 99°
2026-05-04 21:16 54.38154 18.46261 460 ft 8 kts 114°
2026-05-04 21:16 54.38130 18.46356 459 ft 10 kts 113°
2026-05-04 21:17 54.38109 18.46442 460 ft 0 kts 113°
2026-05-04 21:17 54.38105 18.46457 458 ft 2 kts 113°
2026-05-04 21:17 54.38096 18.46493 460 ft 4 kts 113°
2026-05-04 21:17 54.38103 18.46532 460 ft 4 kts 53°
2026-05-04 21:18 54.38124 18.46554 460 ft 0 kts 28°
2026-05-04 21:18 54.38130 18.46559 460 ft 0 kts 27°
2026-05-04 21:18 54.38130 18.46560 460 ft 0 kts 27°